DW1232 Weather Reports


time (UTC)temp
C
wind
direction
speed
KPH
gust
KPH
rain 1hr
cm
rain 24hr
cm
rain mn
cm
humidity
%
barometer
mb
20260507013053 13 347 0.0 0.0 0.00 0.10 0.10 83 1012.4
20260507012104 13 345 0.0 0.0 0.00 0.10 0.10 82 1012.1
20260507011104 14 345 0.0 0.0 0.00 0.10 0.10 82 1011.9
20260507010121 14 345 0.0 0.0 0.00 0.10 0.10 81 1011.9
20260507005103 15 20 0.0 4.8 0.00 0.10 0.10 79 1011.7
20260507002908 16 355 1.6 6.4 0.00 0.10 0.10 74 1011.4
20260507001919 16 0 0.0 6.4 0.00 0.10 0.10 74 1011.4
20260507000857 16 0 0.0 8.0 0.00 0.10 0.10 74 1011.3
20260506234759 17 335 3.2 9.7 0.00 0.10 0.10 71 1011.2
20260506232655 17 53 3.2 9.7 0.00 0.10 0.10 71 1010.9
20260506231644 17 332 3.2 9.7 0.00 0.10 0.10 73 1010.8
20260506230701 16 5 3.2 8.0 0.00 0.10 0.10 73 1010.8
20260506225629 16 39 3.2 9.7 0.00 0.10 0.10 75 1010.7
20260506224647 16 37 1.6 9.7 0.00 0.10 0.10 74 1010.5
20260506223703 16 22 3.2 11.3 0.00 0.10 0.10 74 1010.6
20260506222632 16 41 3.2 11.3 0.00 0.10 0.10 75 1010.5
20260506221615 15 341 3.2 11.3 0.00 0.10 0.10 75 1010.6
20260506220633 16 32 3.2 12.9 0.00 0.10 0.10 74 1010.3
20260506215600 16 0 3.2 12.9 0.00 0.10 0.10 76 1010.1
20260506214616 15 36 3.2 8.0 0.00 0.10 0.10 78 1010.3
20260506213608 15 0 3.2 9.7 0.00 0.10 0.10 76 1010.4
20260506212542 15 38 3.2 9.7 0.00 0.10 0.10 76 1010.4
20260506211548 15 5 3.2 9.7 0.00 0.10 0.10 77 1010.7
20260506210549 15 59 3.2 9.7 0.00 0.10 0.10 77 1010.8
20260506205529 14 334 4.8 9.7 0.00 0.10 0.10 79 1010.8
20260506204548 13 10 3.2 9.7 0.00 0.10 0.10 80 1010.8
20260506203516 13 85 1.6 8.0 0.00 0.10 0.10 81 1010.8
20260506202457 13 49 3.2 9.7 0.00 0.10 0.10 81 1010.8
20260506201427 13 333 3.2 9.7 0.00 0.10 0.10 82 1011.1
20260506193022 12 49 4.8 11.3 0.00 0.10 0.10 83 1011.4
20260506190920 11 342 3.2 14.5 0.00 0.10 0.10 86 1011.8
20260506185941 11 339 4.8 12.9 0.00 0.10 0.10 87 1011.9
20260506184946 11 313 3.2 9.7 0.00 0.10 0.10 87 1012.0
20260506182834 10 74 4.8 14.5 0.00 0.10 0.10 89 1011.9
20260506180747 10 314 4.8 12.9 0.00 0.10 0.10 89 1011.8
20260506175717 10 316 4.8 12.9 0.00 0.10 0.10 90 1011.9
20260506174700 10 350 6.4 11.3 0.00 0.10 0.10 91 1011.5
20260506173629 9 340 4.8 12.9 0.00 0.10 0.10 92 1011.4
20260506172631 9 351 4.8 16.1 0.00 0.10 0.10 92 1011.7
20260506170501 8 324 4.8 14.5 0.00 0.10 0.10 92 1011.8
20260506165431 8 49 6.4 14.5 0.00 0.10 0.10 92 1011.3
20260506164444 8 11 3.2 17.7 0.00 0.10 0.10 92 1011.3
20260506163500 8 5 8.0 17.7 0.00 0.10 0.10 93 1011.1
20260506162443 8 317 4.8 16.1 0.00 0.10 0.10 93 1011.2
20260506161425 8 348 4.8 16.1 0.00 0.10 0.10 93 1011.2
20260506160443 8 22 4.8 16.1 0.00 0.10 0.10 92 1010.9
20260506154247 8 49 4.8 16.1 0.00 0.10 0.10 92 1010.6
20260506152123 8 51 6.4 20.9 0.00 0.10 0.10 93 1010.5
20260506151138 8 46 6.4 20.9 0.00 0.10 0.10 92 1009.9
20260506150107 8 17 8.0 22.5 0.00 0.10 0.10 93 1009.6
20260506145053 8 338 9.7 22.5 0.00 0.10 0.10 95 1009.0
20260506144051 7 34 6.4 19.3 0.00 0.10 0.10 94 1008.6
20260506143106 7 59 6.4 19.3 0.15 0.10 0.10 93 1010.1
20260506142042 7 344 6.4 16.1 0.30 0.08 0.10 93 1010.3
20260506141105 7 30 4.8 11.3 0.13 0.05 0.05 92 1010.3
20260506140058 8 350 3.2 9.7 0.00 0.03 0.03 92 1010.8
20260506135030 8 44 4.8 14.5 0.00 0.00 0.00 92 1011.0
20260506134007 8 5 4.8 14.5 0.00 0.00 0.00 92 1011.0
20260506133015 8 11 4.8 17.7 0.00 0.00 0.00 91 1010.3
20260506125714 8 26 4.8 19.3 0.00 0.00 0.00 89 1009.3
20260506124710 8 0 6.4 19.3 0.00 0.00 0.00 89 1009.5
20260506123647 8 349 6.4 16.1 0.00 0.00 0.00 89 1009.2
20260506122652 8 0 4.8 19.3 0.00 0.00 0.00 88 1009.1
20260506121633 8 34 4.8 19.3 0.00 0.00 0.00 88 1008.3
20260506120648 8 11 6.4 12.9 0.00 0.00 0.00 87 1008.1
20260506115626 9 344 6.4 19.3 0.00 0.00 0.00 87 1007.9
20260506114602 9 346 4.8 19.3 0.00 0.00 0.00 87 1007.7
20260506113548 9 44 6.4 17.7 0.00 0.00 0.00 87 1007.6
20260506112606 9 333 4.8 14.5 0.00 0.00 0.00 88 1007.7
20260506111621 9 32 6.4 14.5 0.00 0.00 0.00 87 1007.8
20260506110559 10 344 3.2 14.5 0.00 0.00 0.00 87 1007.9
20260506104429 10 5 4.8 11.3 0.00 0.00 0.00 87 1007.7
20260506103450 10 341 4.8 14.5 0.00 0.00 0.00 87 1007.4
20260506102453 10 339 4.8 14.5 0.00 0.00 0.00 87 1007.0
20260506101501 10 14 3.2 9.7 0.00 0.00 0.00 87 1006.8
20260506100434 10 38 4.8 16.1 0.00 0.00 0.00 88 1006.6
20260506095442 10 57 4.8 16.1 0.00 0.00 0.00 87 1006.7
20260506094451 10 17 4.8 12.9 0.00 0.00 0.00 87 1006.6
20260506093449 10 5 4.8 12.9 0.00 0.00 0.00 87 1006.7
20260506092433 11 344 4.8 12.9 0.00 0.00 0.00 87 1006.4
20260506091455 11 32 4.8 12.9 0.00 0.00 0.00 87 1006.3
20260506090432 11 38 4.8 12.9 0.00 0.00 0.00 87 1006.0
20260506085423 11 30 6.4 14.5 0.00 0.00 0.00 87 1006.0
20260506084426 11 0 6.4 16.1 0.00 0.00 0.00 86 1005.9
20260506083443 11 19 4.8 16.1 0.00 0.00 0.00 86 1006.0
20260506082455 11 51 4.8 16.1 0.00 0.00 0.00 86 1006.0
20260506081504 11 344 6.4 16.1 0.00 0.00 0.00 86 1005.8
20260506080504 11 78 4.8 16.1 0.00 0.00 0.00 86 1005.8
20260506072247 12 31 4.8 16.1 0.00 0.00 0.00 85 1005.6
20260506071219 12 0 4.8 16.1 0.00 0.00 0.00 85 1005.7
20260506070155 13 338 3.2 12.9 0.00 0.00 0.00 84 1005.3
20260506061024 14 76 4.8 12.9 0.00 0.00 0.00 81 1005.2
20260506044725 16 55 4.8 12.9 0.00 0.00 0.00 75 1005.2
20260506043720 16 347 6.4 14.5 0.00 0.00 0.00 75 1005.1
20260506042712 16 46 3.2 14.5 0.00 0.00 0.00 75 1005.0
20260506041700 16 40 4.8 11.3 0.00 0.00 0.00 75 1004.8
20260506040659 17 43 4.8 17.7 0.00 0.00 0.00 74 1004.8
20260506034529 17 19 6.4 17.7 0.00 0.00 0.00 72 1004.8
20260506033519 17 26 8.0 17.7 0.00 0.00 0.00 72 1004.6
20260506032510 17 46 6.4 17.7 0.00 0.00 0.00 73 1004.6
20260506031437 18 20 4.8 16.1 0.00 0.00 0.00 73 1004.5
20260506025317 19 103 3.2 9.7 0.00 0.00 0.00 73 1004.0
20260506024341 19 50 3.2 12.9 0.00 0.00 0.00 72 1003.9
20260506023405 20 61 3.2 12.9 0.00 0.00 0.00 72 1003.3
20260506022359 20 40 4.8 9.7 0.00 0.00 0.00 72 1003.3
20260506021349 20 22 3.2 16.1 0.00 0.00 0.00 71 1003.3
20260506020320 21 53 4.8 16.1 0.00 0.00 0.00 69 1003.0
20260506014149 23 5 1.6 8.0 0.00 0.00 0.00 68 1002.0